Weather History for Hutchinson, KS

Change the Weather History Date:

Wednesday, December 5, 2012

  Actual Average Record
Temperature  
Mean Temperature 44 °F -  
Max Temperature 60 °F 45 °F 69 °F (2001)
Min Temperature 27 °F 23 °F 9 °F (2005)
Degree Days  
Heating Degree Days 22    
Moisture  
Dew Point 21 °F    
Average Humidity 43    
Maximum Humidity 75    
Minimum Humidity 21    
Precipitation  
Precipitation 0.00 in - - ()
Sea Level Pressure  
Sea Level Pressure 30.15 in    
Wind  
Wind Speed 7 mph (SSE)    
Max Wind Speed 22 mph    
Max Gust Speed 26 mph    
Visibility 10 miles    
Events      
Averages and records for this station are not official NWS values.
T = Trace of Precipitation, MM = Missing Value Source: NWS Daily Summary

Daily Weather History Graph

Daily Weather History Graph

Search for Another Location

Airport:

Trip Planner

Search our weather history database for the weather conditions in past years. The results will help you decide how hot, cold, wet, or windy it might be!

Date:

Astronomy

Dec. 05, 2012 Rise Set
Actual Time 7:32 AM CST 5:11 PM CST
Civil Twilight 7:03 AM CST 5:40 PM CST
Nautical Twilight 6:30 AM CST 6:13 PM CST
Astronomical Twilight 5:59 AM CST 6:45 PM CST
Moon 11:57 PM CST (12/5) 12:01 PM CST (12/5)
Length of Visible Light 10h 37m
Length of Day
9h 38m
Waning Gibbous, 59% of the Moon is Illuminated
Dec 5
Waning Gibbous
Dec 6
Last Quarter
Dec 13
New
Dec 19
First Quarter
Dec 28
Full

Hourly Weather History & Observations

Time (CST) Temp. Windchill Dew Point Humidity Pressure Visibility Wind Dir Wind Speed Gust Speed Precip Events Conditions
12:52 AM 28.0 °F - 19.0 °F 69% 30.31 in 10.0 mi Calm Calm - N/A   Clear
1:52 AM 27.0 °F - 19.9 °F 75% 30.30 in 10.0 mi Calm Calm - N/A   Clear
2:52 AM 28.9 °F - 19.9 °F 69% 30.30 in 10.0 mi Calm Calm - N/A   Clear
3:52 AM 30.0 °F - 19.9 °F 66% 30.30 in 10.0 mi Calm Calm - N/A   Clear
4:52 AM 30.9 °F - 21.0 °F 67% 30.29 in 10.0 mi Calm Calm - N/A   Clear
5:52 AM 34.0 °F 31.0 °F 21.9 °F 61% 30.29 in 10.0 mi SE 3.5 mph - N/A   Clear
6:52 AM 28.9 °F - 21.0 °F 72% 30.31 in 10.0 mi Calm Calm - N/A   Clear
8:52 AM 44.1 °F 40.1 °F 27.0 °F 51% 30.27 in 10.0 mi South 6.9 mph - N/A   Clear
9:52 AM 51.1 °F - 26.1 °F 38% 30.27 in 10.0 mi South 11.5 mph - N/A   Clear
10:52 AM 55.0 °F - 25.0 °F 31% 30.25 in 10.0 mi South 19.6 mph - N/A   Clear
11:52 AM 57.0 °F - 26.1 °F 30% 30.22 in 10.0 mi South 17.3 mph - N/A   Clear
12:52 PM 59.0 °F - 25.0 °F 27% 30.15 in 10.0 mi South 19.6 mph - N/A   Clear
1:52 PM 60.1 °F - 21.9 °F 23% 30.11 in 10.0 mi South 21.9 mph 25.3 mph N/A   Clear
2:52 PM 60.1 °F - 19.9 °F 21% 30.08 in 10.0 mi South 19.6 mph 26.5 mph N/A   Clear
3:52 PM 59.0 °F - 21.0 °F 23% 30.06 in 10.0 mi SSE 18.4 mph - N/A   Clear
4:52 PM 55.9 °F - 19.0 °F 24% 30.04 in 10.0 mi SSE 18.4 mph - N/A   Clear
5:52 PM 51.1 °F - 19.0 °F 28% 30.02 in 10.0 mi SSE 13.8 mph - N/A   Clear
6:52 PM 48.9 °F - 18.0 °F 29% 30.01 in 10.0 mi SSE 11.5 mph - N/A   Clear
7:52 PM 45.0 °F 40.1 °F 19.9 °F 37% 30.01 in 10.0 mi SE 9.2 mph - N/A   Clear
8:52 PM 44.1 °F 39.0 °F 19.0 °F 37% 29.98 in 10.0 mi SSE 9.2 mph - N/A   Clear
9:52 PM 46.0 °F 40.6 °F 21.0 °F 37% 29.98 in 10.0 mi South 11.5 mph - N/A   Clear
10:52 PM 45.0 °F 38.9 °F 21.0 °F 39% 29.95 in 10.0 mi SSE 12.7 mph - N/A   Clear
11:52 PM 45.0 °F 38.2 °F 23.0 °F 42% 29.93 in 10.0 mi South 15.0 mph - N/A   Clear